Flag for Germany Weather past 2 weeks in Bad Neuenahr-Ahrweiler, Rhineland-Palatinate, Germany

Now
64 °F

Overcast.


Feels Like: 64 °F
Forecast: 53 / 65 °F
Wind: 3 mph from Southwest

Location: Bonn-Hangelar

Current Time: Sep 20, 2014 at 3:02:32 AM

Latest Report: Sep 20, 2014 at 2:00 AM


Visibility: 14 mi

Pressure: 29.93 "Hg

Humidity: 89%

Dew point: 60 °F

Location of Bad Neuenahr-AhrweilerLocation

Historic Weather in Bad Neuenahr-Ahrweiler — Graph

°F

Bad Neuenahr-Ahrweiler temperature yesterday

Maximum temperature yesterday: 74 °F (at 4:00 PM)
Minimum temperature yesterday: 62 °F (at 8:00 AM)
Average temperature yesterday: 67 °F

Past Weeks' High & Low Weather Summary

 TemperatureHumidityPressure
High75 °F (Sep 17, 3:00 PM)99% (Sep 13, 10:00 AM)30.27 "Hg (Sep 13, 10:00 AM)
Low47 °F (Sep 12, 7:00 AM)52% (Sep 10, 3:00 PM)29.80 "Hg (Sep 18, 6:00 PM)
Average61 °F81%30.02 "Hg
* Reported Sep 5 2:00 AM — Sep 20 2:00 AM, Bad Neuenahr-Ahrweiler, Weather by CustomWeather, © 2014

Note: Actual official high and low records may vary slightly from our data, if they occured in-between our weather recording intervals... More about our weather records

Advertising

Bad Neuenahr-Ahrweiler weather history for previous 24 hours

 ConditionsComfort  
Time TempWeatherWind HumidityBarometerVisibility
2:00 AM
Sep 20
64 °FOvercast.3 mph89%29.93 "Hg14 mi
1:00 AM64 °FPassing clouds.3 mph88%29.93 "Hg12 mi
12:00 AM65 °FOvercast.3 mph88%29.92 "Hg11 mi
11:00 PM
Sep 19
65 °FOvercast.2 mph84%29.92 "Hg7 mi
10:00 PM66 °FPassing clouds.2 mph85%29.91 "Hg9 mi
9:00 PM67 °FPassing clouds.2 mph83%29.90 "Hg25 mi
8:00 PM68 °FPassing clouds.2 mph82%29.89 "Hg25 mi
7:00 PM72 °FPartly sunny.1 mph74%29.87 "Hg25 mi
6:00 PM74 °FPartly sunny.3 mph68%29.86 "Hg25 mi
5:00 PM74 °FOvercast.3 mph71%29.86 "Hg22 mi
4:00 PM74 °FOvercast.5 mph71%29.87 "Hg22 mi
3:00 PM74 °FOvercast.5 mph71%29.87 "Hg16 mi
2:00 PM72 °FPartly sunny.3 mph75%29.87 "Hg19 mi
1:00 PM71 °FPartly sunny.3 mph74%29.88 "Hg22 mi
12:00 PM70 °FPartly sunny.5 mph78%29.87 "Hg22 mi
11:00 AM69 °FPartly sunny.5 mph80%29.87 "Hg22 mi
10:00 AM65 °FOvercast.6 mph85%29.88 "Hg25 mi
9:00 AM64 °FOvercast.6 mph86%29.87 "Hg25 mi
8:00 AM62 °FOvercast.5 mph87%29.85 "Hg22 mi
7:00 AM63 °FPassing clouds.6 mph85%29.83 "Hg31 mi
6:00 AM63 °FPassing clouds.6 mph87%29.83 "Hg31 mi
5:00 AM63 °FOvercast.6 mph85%29.83 "Hg22 mi
4:00 AM62 °FOvercast.5 mph88%29.83 "Hg19 mi
3:00 AM63 °FOvercast.6 mph87%29.83 "Hg25 mi
Weather by CustomWeather, © 2014

See weather overviewHow to use our weather pages